Location: Acton
(51.4942°N, 0.2232°W)
Time: 03:43:00
(UTC+00:00)

Cosmos 1536 Rocket - Pass Details

Date: 18 September 2020
Orbit: 606 x 631 km, 82.5° (Epoch: 18 October)

Event Time Altitude Azimuth Distance (km) Brightness Sun altitude
Rises 20:08:16 0° 346° (NNW) 2,914 7.7 -18.8°
Reaches altitude 10° 20:10:32 10° 342° (NNW) 2,006 6.8 -19.1°
Maximum altitude 20:14:52 55° 265° (W) 758 4.2 -19.7°
Enters shadow 20:18:28 15° 190° (S) 1,716 5.6 -20.2°
